Location: Ceske Budejovice
(48.9830°N, 14.4670°E)
Time: 09:19:19
(UTC+02:00)

ISS - Pass Details

Date: 26 April 2024
Orbit: 409 x 414 km, 51.6° (Epoch: 21 May)

Event Time Altitude Azimuth Distance (km) Brightness Sun altitude
Exits shadow 03:52:46 25° 162° (SSE) 878 -2.4 -16.7°
Maximum altitude 03:53:21 26° 144° (SE) 842 -2.3 -16.6°
Drops below altitude 10° 03:56:07 10° 85° (E) 1,458 -0.3 -16.3°
Sets 03:58:27 0° 72° (ENE) 2,341 1.2 -16.0°
